{"data":{"norad_id":62222,"epoch":"2026-09-21T04:17:45.000384Z","epoch_age_seconds":118969,"freshness":"FRESH","line1":"1 62222U 24231E   26264.17899306  .00155814  00000+0  12660-2 0  9999","line2":"2 62222  53.1573 217.6966 0001174  53.8149 306.2977 15.69728663104114","mean_motion":15.69728663,"eccentricity":0.0001174,"inclination_deg":53.1573,"raan_deg":217.6966,"arg_perigee_deg":53.8149,"mean_anomaly_deg":306.2977,"bstar":0.001266,"rev_number":10411,"period_min":91.735599530172,"perigee_km":358.88232565228,"apogee_km":360.46436352119,"semimajor_km":6737.8103445867,"source":"CELESTRAK","updated_at":"2026-09-22T09:00:49.544892Z"}}